Flag Weather past 2 weeks in Danmarkshavn, Greenland

Now
-3 °F

Passing clouds.


Feels Like: -3 °F
Forecast: 3 / 7 °F
Wind: No wind

Location: Danmarkshavn

Current Time: Oct 30, 2014 at 5:58:09 PM

Latest Report: Oct 30, 2014 at 5:00 PM


Visibility: 31 mi

Pressure: 30.15 "Hg

Humidity: 83%

Dew point: -7 °F

Location of DanmarkshavnLocation

Historic Weather in Danmarkshavn — Graph

°F

Danmarkshavn temperature yesterday

Maximum temperature yesterday: 18 °F (at 12:00 AM)
Minimum temperature yesterday: 5 °F (at 11:00 PM)
Average temperature yesterday: 13 °F

Past Weeks' High & Low Weather Summary

 TemperatureHumidityPressure
High28 °F (Oct 25, 1:00 PM)97% (Oct 25, 4:00 AM)30.32 "Hg (Oct 25, 4:00 AM)
Low-7 °F (Oct 18, 9:00 AM)58% (Oct 20, 1:00 AM)29.09 "Hg (Oct 23, 5:00 AM)
Average13 °F82%29.78 "Hg
* Reported Oct 16 1:00 PM — Oct 30 4:00 PM, Danmarkshavn, Weather by CustomWeather, © 2014

Note: Actual official high and low records may vary slightly from our data, if they occured in-between our weather recording intervals... More about our weather records

Advertising

Danmarkshavn weather history for previous 24 hours

 ConditionsComfort  
Time TempWeatherWind HumidityBarometerVisibility
4:00 PM
Oct 30
-2 °FClear.No wind77%30.15 "Hg31 mi
3:00 PM-3 °FClear.No wind81%30.16 "Hg31 mi
2:00 PM-2 °FClear.No wind81%30.15 "Hg25 mi
1:00 PM4 °FClear.6 mph67%30.15 "Hg31 mi
12:00 PM5 °FSunny.6 mph66%30.14 "Hg31 mi
11:00 AM4 °FFrigid.12 mph67%30.14 "Hg31 mi
10:00 AM6 °FPassing clouds.14 mph65%30.13 "Hg31 mi
9:00 AM7 °FClear.8 mph65%30.13 "Hg31 mi
8:00 AM7 °FClear.13 mph62%30.11 "Hg31 mi
7:00 AM5 °FClear.9 mph68%30.11 "Hg31 mi
6:00 AM5 °FClear.9 mph65%30.11 "Hg31 mi
5:00 AM6 °FClear.13 mph63%30.10 "Hg31 mi
4:00 AM6 °FClear.8 mph61%30.10 "Hg31 mi
3:00 AM4 °FClear.7 mph66%30.10 "Hg31 mi
2:00 AM5 °FClear.10 mph65%30.09 "Hg31 mi
1:00 AM6 °FClear.8 mph65%30.10 "Hg31 mi
12:00 AM5 °FClear.10 mph70%30.10 "Hg31 mi
11:00 PM
Oct 29
5 °FClear.6 mph71%30.10 "Hg31 mi
10:00 PM6 °FClear.10 mph69%30.10 "Hg31 mi
9:00 PM7 °FClear.5 mph71%30.09 "Hg31 mi
8:00 PM9 °FOvercast.5 mph71%30.09 "Hg31 mi
7:00 PM8 °FOvercast.7 mph70%30.09 "Hg31 mi
6:00 PM8 °FOvercast.10 mph71%30.09 "Hg31 mi
5:00 PM12 °FOvercast.8 mph69%30.07 "Hg31 mi
Weather by CustomWeather, © 2014

See weather overviewHow to use our weather pages